Location: Andrest
(43.3200°N, 0.0641°E)
Time: 10:21:41
(UTC+00:00)

SL-24 R/B - Pass Details

Date: 01 December 2020
Orbit: 505 x 1002 km, 97.4° (Epoch: 23 January)

Event Time Altitude Azimuth Distance (km) Brightness Sun altitude
Exits shadow 17:49:35 24° 44° (NE) 1,118 4.9 -15.0°
Maximum altitude 17:51:20 39° 97° (E) 786 4.1 -15.3°
Drops below altitude 10° 17:54:45 10° 168° (SSE) 1,712 6.4 -15.9°
Sets 17:56:54 0° 176° (S) 2,597 7.4 -16.2°
